This is the latest recevied weather packets stored in our database for station/object AA7VG. If no packets are shown the sender has not sent any weather packets the latest 1 day(s).
| Time | Temp. | Humidity | Pressure | Rain* | Wind** | Luminosity | Snow |
|---|---|---|---|---|---|---|---|
| 1778025504 | 8.89° C | 33% | 1015.3 hPa | 0 mm | 2.68 m/s, 333° | - | - |
| 1778025202 | 8.89° C | 34% | 1015.4 hPa | 0 mm | 3.13 m/s, 34° | - | - |
| 1778024898 | 8.89° C | 33% | 1015.1 hPa | 0 mm | 3.13 m/s, 309° | - | - |
| 1778024596 | 8.89° C | 33% | 1015.1 hPa | 0 mm | 2.24 m/s, 353° | - | - |
| 1778024293 | 8.89° C | 33% | 1015 hPa | 0 mm | 1.34 m/s, 330° | - | - |
| 1778023991 | 8.89° C | 32% | 1014.7 hPa | 0 mm | 0.89 m/s, 33° | - | - |
| 1778023688 | 8.89° C | 32% | 1015.1 hPa | 0 mm | 1.34 m/s, 357° | - | - |
| 1778023385 | 9.44° C | 32% | 1015.1 hPa | 0 mm | 2.24 m/s, 306° | - | - |
| 1778023082 | 10° C | 31% | 1014.7 hPa | 0 mm | 0.45 m/s, 75° | - | - |
| 1778022780 | 9.44° C | 33% | 1014.8 hPa | 0 mm | 1.34 m/s, 96° | - | - |
| 1778022478 | 10° C | 33% | 1014.7 hPa | 0 mm | 1.34 m/s, 90° | - | - |
| 1778022175 | 9.44° C | 33% | 1014.7 hPa | 0 mm | 1.34 m/s, 338° | - | - |
| 1778021871 | 9.44° C | 34% | 1014.6 hPa | 0 mm | 0.89 m/s, 340° | - | - |
| 1778021569 | 8.89° C | 34% | 1014.8 hPa | 0 mm | 1.34 m/s, 324° | - | - |
| 1778021263 | 9.44° C | 33% | 1014.7 hPa | 0 mm | 1.79 m/s, 338° | - | - |
| 1778020961 | 8.89° C | 34% | 1014.8 hPa | 0 mm | 1.79 m/s, 114° | - | - |
| 1778020659 | 9.44° C | 33% | 1015 hPa | 0 mm | 1.79 m/s, 4° | - | - |
| 1778020355 | 9.44° C | 32% | 1014.8 hPa | 0 mm | 0.45 m/s, 77° | - | - |
| 1778020051 | 9.44° C | 32% | 1014.7 hPa | 0 mm | 0 m/s | - | - |
| 1778019747 | 10° C | 30% | 1014.6 hPa | 0 mm | 2.24 m/s, 302° | - | - |
| 1778019445 | 10° C | 33% | 1014.5 hPa | 0 mm | 0.45 m/s, 322° | - | - |
| 1778019141 | 10° C | 32% | 1014.7 hPa | 0 mm | 0.45 m/s, 34° | - | - |
| 1778018838 | 9.44° C | 34% | 1014.7 hPa | 0 mm | 0.45 m/s, 329° | - | - |
| 1778018536 | 10° C | 32% | 1014.5 hPa | 0 mm | 0.89 m/s, 62° | - | - |
| 1778018234 | 10° C | 32% | 1014.6 hPa | 0 mm | 0.45 m/s, 294° | - | - |
* Rain latest hour (hover to see other rain measurements)
** Current wind speed in m/s (hover to see current wind gust speed)